When you browse on this site, cookies collect data to enhance your experience and personalize the content and advertising you see.
Visit our Privacy Policy to learn more. By continuing to use the site, you agree to this use of cookies and data.
  • In Slovakia
  • List of Countries
  • For 7 days
  • Water Temperature
  • Weather Map
  • Weather Widgets
  • user-avatar
    Login

    Hourly Weather Yelsk

    Today, 10 December, Tuesday

    Time Temperature Precipitation Wind Pressure Humidity
    00:00 +4°C° 0 mm 2 mps 742 mmHg 83%
    01:00 +4°C° 0 mm 2 mps 742 mmHg 85%
    02:00 +3°C° 0 mm 2 mps 743 mmHg 89%
    03:00 +3°C° 0 mm 2 mps 743 mmHg 90%
    04:00 +3°C° 0 mm 2 mps 743 mmHg 91%
    05:00 +2°C° 0 mm 2 mps 743 mmHg 92%
    06:00 +2°C° 0 mm 2 mps 743 mmHg 92%
    07:00 +2°C° 0 mm 2 mps 743 mmHg 91%
    08:00 +2°C° 0 mm 2 mps 744 mmHg 91%
    09:00 +3°C° 0 mm 2 mps 744 mmHg 89%
    10:00 +3°C° 0 mm 2 mps 744 mmHg 86%
    11:00 +4°C° 0 mm 2 mps 744 mmHg 84%
    12:00 +4°C° 0 mm 2 mps 744 mmHg 83%
    13:00 +5°C° 0 mm 2 mps 744 mmHg 82%
    14:00 +5°C° 0 mm 2 mps 745 mmHg 81%
    15:00 +4°C° 0 mm 2 mps 745 mmHg 84%
    16:00 +4°C° 0 mm 2 mps 745 mmHg 87%
    17:00 +3°C° 0 mm 2 mps 745 mmHg 89%
    18:00 +3°C° 0 mm 2 mps 746 mmHg 91%
    19:00 +3°C° 0 mm 2 mps 746 mmHg 92%
    20:00 +2°C° 0 mm 2 mps 747 mmHg 94%
    21:00 +2°C° 0 mm 2 mps 747 mmHg 94%
    22:00 +2°C° 0 mm 2 mps 747 mmHg 94%
    23:00 +2°C° 0 mm 2 mps 748 mmHg 94%

    Tomorrow, 11 December, Wednesday

    Time Temperature Precipitation Wind Pressure Humidity
    00:00 +1°C° 0 mm 2 mps 748 mmHg 93%
    01:00 +1°C° 0 mm 2 mps 749 mmHg 91%
    02:00 +1°C° 0 mm 2 mps 749 mmHg 89%
    03:00 -1°C° 0 mm 2 mps 749 mmHg 91%
    04:00 -1°C° 0 mm 2 mps 749 mmHg 92%
    05:00 -2°C° 0 mm 2 mps 749 mmHg 93%
    06:00 -2°C° 0 mm 2 mps 749 mmHg 93%
    07:00 0°C° 0 mm 1 mps 750 mmHg 94%
    08:00 0°C° 0 mm 1 mps 750 mmHg 94%
    09:00 +1°C° 0 mm 1 mps 750 mmHg 90%
    10:00 +2°C° 0 mm 1 mps 750 mmHg 86%
    11:00 +3°C° 0 mm 1 mps 750 mmHg 83%
    12:00 +3°C° 0 mm 1 mps 750 mmHg 81%
    13:00 +3°C° 0 mm 1 mps 750 mmHg 79%
    14:00 +4°C° 0 mm 1 mps 750 mmHg 76%
    15:00 +3°C° 0 mm 1 mps 750 mmHg 81%
    16:00 +2°C° 0 mm 1 mps 750 mmHg 85%
    17:00 +1°C° 0 mm 1 mps 750 mmHg 90%
    18:00 +1°C° 0 mm 1 mps 750 mmHg 91%
    19:00 +1°C° 0 mm 1 mps 750 mmHg 91%
    20:00 -2°C° 0 mm 2 mps 750 mmHg 92%
    21:00 -2°C° 0 mm 2 mps 750 mmHg 92%
    22:00 -2°C° 0 mm 2 mps 750 mmHg 91%
    23:00 -2°C° 0 mm 2 mps 749 mmHg 90%

    Day after tomorrow, 12 December, Thursday

    Time Temperature Precipitation Wind Pressure Humidity
    00:00 -1°C° 0 mm 3 mps 749 mmHg 91%
    01:00 -1°C° 0 mm 3 mps 749 mmHg 93%
    02:00 0°C° 0 mm 3 mps 749 mmHg 94%
    03:00 0°C° 0 mm 3 mps 749 mmHg 94%
    04:00 -1°C° 0 mm 4 mps 748 mmHg 95%
    05:00 0°C° 0 mm 4 mps 748 mmHg 96%
    06:00 0°C° 0 mm 4 mps 748 mmHg 95%
    07:00 0°C° 0 mm 4 mps 748 mmHg 95%
    08:00 0°C° 0 mm 4 mps 748 mmHg 95%
    09:00 +1°C° 0 mm 4 mps 748 mmHg 93%
    10:00 +1°C° 0 mm 4 mps 748 mmHg 90%
    11:00 +1°C° 0 mm 4 mps 748 mmHg 88%
    12:00 +3°C° 0 mm 4 mps 747 mmHg 85%
    13:00 +3°C° 0 mm 4 mps 747 mmHg 82%
    14:00 +4°C° 0 mm 4 mps 747 mmHg 79%
    15:00 +3°C° 0 mm 4 mps 746 mmHg 81%
    16:00 +1°C° 0 mm 4 mps 746 mmHg 84%
    17:00 0°C° 0 mm 4 mps 746 mmHg 87%
    18:00 0°C° 0 mm 4 mps 745 mmHg 87%
    19:00 0°C° 0 mm 4 mps 745 mmHg 88%
    20:00 0°C° 0 mm 4 mps 745 mmHg 89%
    21:00 -1°C° 0 mm 5 mps 745 mmHg 90%
    22:00 -1°C° 0 mm 5 mps 745 mmHg 91%
    23:00 -1°C° 0 mm 5 mps 745 mmHg 92%

    13 December, Friday

    Time Temperature Precipitation Wind Pressure Humidity
    00:00 0°C° 0 mm 5 mps 744 mmHg 91%
    01:00 0°C° 0 mm 5 mps 744 mmHg 90%
    02:00 0°C° 0 mm 5 mps 743 mmHg 89%
    03:00 0°C° 0 mm 5 mps 743 mmHg 88%
    04:00 0°C° 0 mm 5 mps 743 mmHg 88%
    05:00 0°C° 0 mm 5 mps 742 mmHg 87%
    06:00 -1°C° 0 mm 6 mps 742 mmHg 86%
    07:00 -2°C° 0 mm 6 mps 742 mmHg 85%
    08:00 -2°C° 0 mm 6 mps 741 mmHg 85%
    09:00 -2°C° 0 mm 6 mps 741 mmHg 82%
    10:00 -2°C° 0 mm 6 mps 741 mmHg 80%
    11:00 -2°C° 0 mm 6 mps 741 mmHg 78%
    12:00 -2°C° 0 mm 6 mps 740 mmHg 78%
    13:00 -1°C° 0 mm 6 mps 740 mmHg 77%
    14:00 -1°C° 0 mm 6 mps 740 mmHg 76%
    15:00 -1°C° 0 mm 6 mps 740 mmHg 76%
    16:00 0°C° 0 mm 5 mps 739 mmHg 76%
    17:00 0°C° 0 mm 5 mps 739 mmHg 76%
    18:00 0°C° 0 mm 5 mps 739 mmHg 77%
    19:00 0°C° 0 mm 5 mps 739 mmHg 78%
    20:00 0°C° 0 mm 5 mps 739 mmHg 78%
    21:00 0°C° 0 mm 5 mps 739 mmHg 78%
    22:00 0°C° 0 mm 5 mps 739 mmHg 79%
    23:00 -1°C° 0 mm 6 mps 739 mmHg 79%

    14 December, Saturday

    Time Temperature Precipitation Wind Pressure Humidity
    00:00 0°C° 0 mm 5 mps 739 mmHg 79%
    01:00 0°C° 0 mm 5 mps 739 mmHg 80%
    02:00 0°C° 0 mm 5 mps 739 mmHg 80%
    03:00 0°C° 0 mm 5 mps 739 mmHg 81%
    04:00 0°C° 0 mm 5 mps 739 mmHg 82%
    05:00 0°C° 0 mm 5 mps 739 mmHg 82%
    06:00 0°C° 0 mm 5 mps 740 mmHg 82%
    07:00 0°C° 0 mm 5 mps 740 mmHg 82%
    08:00 0°C° 0 mm 5 mps 740 mmHg 83%
    09:00 0°C° 0 mm 5 mps 740 mmHg 83%
    10:00 0°C° 0 mm 5 mps 740 mmHg 83%
    11:00 +1°C° 0 mm 5 mps 740 mmHg 83%
    12:00 +1°C° 0.1 mm 5 mps 740 mmHg 84%
    13:00 +1°C° 0.1 mm 5 mps 740 mmHg 85%
    14:00 +2°C° 0.1 mm 5 mps 739 mmHg 85%
    15:00 +2°C° 0.2 mm 5 mps 739 mmHg 86%
    16:00 +2°C° 0.2 mm 5 mps 739 mmHg 86%
    17:00 +2°C° 0.2 mm 5 mps 739 mmHg 86%
    18:00 +2°C° 0.2 mm 5 mps 739 mmHg 87%
    19:00 +2°C° 0.2 mm 5 mps 739 mmHg 88%
    20:00 +3°C° 0.2 mm 5 mps 739 mmHg 88%
    21:00 +3°C° 0 mm 5 mps 739 mmHg 89%
    22:00 +4°C° 0 mm 4 mps 739 mmHg 90%
    23:00 +5°C° 0 mm 4 mps 739 mmHg 90%

    15 December, Sunday

    Time Temperature Precipitation Wind Pressure Humidity
    00:00 +5°C° 0 mm 4 mps 739 mmHg 90%
    01:00 +5°C° 0 mm 4 mps 740 mmHg 90%
    02:00 +5°C° 0 mm 4 mps 740 mmHg 89%
    03:00 +4°C° 0 mm 4 mps 740 mmHg 89%
    04:00 +4°C° 0 mm 3 mps 741 mmHg 88%
    05:00 +3°C° 0 mm 3 mps 741 mmHg 88%
    06:00 +3°C° 0 mm 3 mps 741 mmHg 86%
    07:00 +1°C° 0 mm 4 mps 741 mmHg 85%
    08:00 +1°C° 0 mm 4 mps 742 mmHg 83%
    09:00 +3°C° 0 mm 4 mps 742 mmHg 79%
    10:00 +3°C° 0 mm 5 mps 743 mmHg 75%
    11:00 +5°C° 0 mm 5 mps 743 mmHg 72%
    12:00 +5°C° 0 mm 4 mps 743 mmHg 70%
    13:00 +6°C° 0 mm 4 mps 743 mmHg 68%
    14:00 +6°C° 0 mm 4 mps 744 mmHg 67%
    15:00 +5°C° 0 mm 3 mps 744 mmHg 71%
    16:00 +5°C° 0 mm 3 mps 744 mmHg 74%
    17:00 +4°C° 0 mm 3 mps 745 mmHg 78%
    18:00 +4°C° 0.1 mm 3 mps 745 mmHg 77%
    19:00 +4°C° 0.1 mm 3 mps 744 mmHg 75%
    20:00 +5°C° 0.1 mm 3 mps 744 mmHg 74%
    21:00 +5°C° 0 mm 3 mps 744 mmHg 71%
    22:00 +5°C° 0 mm 4 mps 744 mmHg 69%
    23:00 +5°C° 0 mm 5 mps 744 mmHg 67%
    Show more